[Date Prev][Date Next][Thread Prev][Thread Next] - [Date Index][Thread Index][Author Index]

2 Line ISS Keps 4-25



ISS
1 25544U 98067A   02115.25738426  .00043619  00000-0  57372-3 0  3507
2 25544  51.6377 318.9205 0006656   3.2183 342.3067 15.58007195195763


----
Via the sarex mailing list at AMSAT.ORG courtesy of AMSAT-NA.
To unsubscribe, send "unsubscribe sarex" to Majordomo@amsat.org



AMSAT Top AMSAT Home